Location: *
(58.4167°N, 22.5000°E)
Time: 23:14:54
(UTC+00:00)

Cosmos 1703 - Pass Details

Date: 22 September 2019
Orbit: 525 x 540 km, 82.5° (Epoch: 17 October)

Event Time Altitude Azimuth Distance (km) Brightness Sun altitude
Rises 19:38:34 0° 347° (NNW) 2,715 7.8 -23.1°
Reaches altitude 10° 19:40:46 10° 351° (N) 1,819 6.7 -23.3°
Enters shadow 19:44:08 55° 27° (NNE) 657 3.7 -23.6°
